User: anonymous   Login
Location: Cudham
(51.3000°N, 0.0667°E)
Time: 10:11:38
(UTC+00:00)
Language:

Landsat 5 - Orbit

View from above orbital plane
View from above orbital plane
View from above satellite
View from above satellite

Ground track
Ground track

The orbit data is extracted from the following two-line orbital elements,

1 14780U 84021A   25197.71379678  .00001151  00000-0  87639-4 0  9992
2 14780  98.0846  97.6059 0073209 158.8324 201.5956 15.02207347740982
Epoch (UTC): 16 July 2025 17:07:52
Eccentricity: 0.0073209
inclination: 98.0846°
perigee height: 509 km
apogee height: 611 km
right ascension of ascending node: 97.6059°
argument of perigee: 158.8324°
revolutions per day: 15.02207347
mean anomaly at epoch: 201.5956°
orbit number at epoch: 74098

The dashed part of the orbit path shows where the satellite is in the earth's shadow,  

DLR